Time,TemperatureF,DewpointF,PressureIn,WindDirection,WindDirectionDegrees,WindSpeedMPH,WindSpeedGustMPH,Humidity,HourlyPrecipIn,Conditions,Clouds,dailyrainin,SoftwareType,DateUTC
2013-02-18 00:00:00,65.2,59.6,29.95,South,180,11.2,15.2,82,0.00,,---,0.00,VWS V14.01,2013-02-18 06:00:00,
2013-02-18 00:05:00,65.2,59.6,29.95,SSE,160,10.2,20.2,82,0.00,,---,0.00,VWS V14.01,2013-02-18 06:05:00,
2013-02-18 00:10:00,65.2,59.6,29.95,SE,140,12.2,17.2,82,0.00,,---,0.00,VWS V14.01,2013-02-18 06:10:00,
2013-02-18 00:15:00,65.2,59.6,29.95,SSE,150,8.2,12.2,82,0.00,,---,0.00,VWS V14.01,2013-02-18 06:15:00,
2013-02-18 00:20:00,65.2,59.6,29.95,SE,128,8.2,19.2,82,0.00,,---,0.00,VWS V14.01,2013-02-18 06:20:00,
2013-02-18 00:25:00,65.2,59.9,29.95,SSE,163,8.2,17.2,83,0.00,,---,0.00,VWS V14.01,2013-02-18 06:25:00,
2013-02-18 00:30:00,65.2,59.9,29.94,SE,146,8.2,17.2,83,0.00,,---,0.00,VWS V14.01,2013-02-18 06:30:00,
2013-02-18 00:35:00,65.2,59.9,29.94,SSE,161,9.2,17.2,83,0.00,,---,0.00,VWS V14.01,2013-02-18 06:35:00,
2013-02-18 00:40:00,65.2,59.9,29.94,SE,144,14.2,17.2,83,0.00,,---,0.00,VWS V14.01,2013-02-18 06:40:00,
2013-02-18 00:45:00,65.2,59.9,29.94,South,172,10.2,16.2,83,0.00,,---,0.00,VWS V14.01,2013-02-18 06:45:00,
2013-02-18 00:50:00,65.2,59.9,29.94,SSE,165,8.2,18.2,83,0.00,,---,0.00,VWS V14.01,2013-02-18 06:50:00,
2013-02-18 00:55:00,65.2,59.9,29.94,SSE,167,6.2,13.2,83,0.00,,---,0.00,VWS V14.01,2013-02-18 06:55:00,
2013-02-18 01:00:00,65.2,59.9,29.93,SSE,151,13.2,18.2,83,0.00,,---,0.00,VWS V14.01,2013-02-18 07:00:00,
2013-02-18 01:05:00,65.2,59.9,29.93,SE,143,15.2,17.2,83,0.00,,---,0.00,VWS V14.01,2013-02-18 07:05:00,
2013-02-18 01:10:00,65.2,60.2,29.93,South,178,8.2,17.2,84,0.00,,---,0.00,VWS V14.01,2013-02-18 07:10:00,
2013-02-18 01:15:00,65.2,60.2,29.93,SSE,153,6.2,14.2,84,0.00,,---,0.00,VWS V14.01,2013-02-18 07:15:00,
2013-02-18 01:20:00,65.2,60.2,29.93,South,178,9.2,14.2,84,0.00,,---,0.00,VWS V14.01,2013-02-18 07:20:00,
2013-02-18 01:25:00,65.2,60.2,29.93,SSE,153,6.2,13.2,84,0.00,,---,0.00,VWS V14.01,2013-02-18 07:25:00,
2013-02-18 01:30:00,65.2,60.2,29.93,SSE,154,11.2,16.2,84,0.00,,---,0.00,VWS V14.01,2013-02-18 07:30:00,
2013-02-18 01:35:00,65.2,60.6,29.93,SSE,155,8.2,14.2,85,0.00,,---,0.00,VWS V14.01,2013-02-18 07:35:00,
2013-02-18 01:40:00,65.2,60.6,29.93,South,174,13.2,17.2,85,0.00,,---,0.00,VWS V14.01,2013-02-18 07:40:00,
2013-02-18 01:45:00,65.2,60.6,29.93,SSE,165,6.2,17.2,85,0.00,,---,0.00,VWS V14.01,2013-02-18 07:45:00,
2013-02-18 01:50:00,65.2,60.6,29.93,SE,144,6.2,16.2,85,0.00,,---,0.00,VWS V14.01,2013-02-18 07:50:00,
2013-02-18 01:55:00,65.2,60.6,29.93,SE,144,14.2,16.2,85,0.00,,---,0.00,VWS V14.01,2013-02-18 07:55:00,
2013-02-18 02:00:00,65.0,60.4,29.92,ESE,121,11.2,15.2,85,0.00,,---,0.00,VWS V14.01,2013-02-18 08:00:00,
2013-02-18 02:05:00,65.0,60.4,29.92,SSE,162,7.2,16.2,85,0.00,,---,0.00,VWS V14.01,2013-02-18 08:05:00,
2013-02-18 02:10:00,65.0,60.7,29.92,SSE,156,6.2,16.2,86,0.00,,---,0.00,VWS V14.01,2013-02-18 08:10:00,
2013-02-18 02:15:00,65.0,60.7,29.91,South,172,6.2,16.2,86,0.00,,---,0.00,VWS V14.01,2013-02-18 08:15:00,
2013-02-18 02:20:00,65.0,60.7,29.91,SSE,164,5.2,15.2,86,0.00,,---,0.00,VWS V14.01,2013-02-18 08:20:00,
2013-02-18 02:25:00,65.0,60.7,29.91,SE,146,6.2,15.2,86,0.00,,---,0.00,VWS V14.01,2013-02-18 08:25:00,
2013-02-18 02:30:00,65.0,60.7,29.91,SSE,147,7.2,14.2,86,0.00,,---,0.00,VWS V14.01,2013-02-18 08:30:00,
2013-02-18 02:35:00,65.0,61.0,29.91,SSE,162,8.2,16.2,87,0.00,,---,0.00,VWS V14.01,2013-02-18 08:35:00,
2013-02-18 02:40:00,65.0,61.0,29.91,SSE,147,10.2,14.2,87,0.00,,---,0.00,VWS V14.01,2013-02-18 08:40:00,
2013-02-18 02:45:00,65.0,61.0,29.90,SSE,155,9.2,15.2,87,0.00,,---,0.00,VWS V14.01,2013-02-18 08:45:00,
2013-02-18 02:50:00,65.0,61.0,29.90,SE,134,10.2,14.2,87,0.00,,---,0.00,VWS V14.01,2013-02-18 08:50:00,
2013-02-18 02:55:00,65.0,61.0,29.90,SSE,154,10.2,14.2,87,0.00,,---,0.00,VWS V14.01,2013-02-18 08:55:00,
2013-02-18 03:00:00,65.0,61.0,29.90,SSW,194,6.2,14.2,87,0.00,,---,0.00,VWS V14.01,2013-02-18 09:00:00,
2013-02-18 03:05:00,65.0,61.4,29.90,SE,146,7.2,15.2,88,0.00,,---,0.00,VWS V14.01,2013-02-18 09:05:00,
2013-02-18 03:10:00,65.0,61.4,29.90,SSE,162,10.2,15.2,88,0.00,,---,0.00,VWS V14.01,2013-02-18 09:10:00,
2013-02-18 03:15:00,65.0,61.4,29.89,SSE,159,4.2,13.2,88,0.00,,---,0.00,VWS V14.01,2013-02-18 09:15:00,
2013-02-18 03:20:00,65.0,61.4,29.89,South,172,11.2,15.2,88,0.00,,---,0.00,VWS V14.01,2013-02-18 09:20:00,
2013-02-18 03:25:00,65.0,61.0,29.89,SSE,159,11.2,15.2,87,0.00,,---,0.00,VWS V14.01,2013-02-18 09:25:00,
2013-02-18 03:30:00,65.0,61.4,29.89,SSE,162,10.2,15.2,88,0.00,,---,0.00,VWS V14.01,2013-02-18 09:30:00,
2013-02-18 03:35:00,65.0,61.4,29.89,SE,144,13.2,17.2,88,0.00,,---,0.00,VWS V14.01,2013-02-18 09:35:00,
2013-02-18 03:40:00,65.0,61.4,29.89,SSE,163,9.2,15.2,88,0.00,,---,0.00,VWS V14.01,2013-02-18 09:40:00,
2013-02-18 03:45:00,65.2,61.2,29.87,SSE,151,15.2,16.2,87,0.00,,---,0.00,VWS V14.01,2013-02-18 09:45:00,
2013-02-18 03:50:00,65.2,61.2,29.87,SSE,150,11.2,16.2,87,0.00,,---,0.00,VWS V14.01,2013-02-18 09:50:00,
2013-02-18 03:55:00,65.2,61.2,29.87,SSE,163,8.2,14.2,87,0.00,,---,0.00,VWS V14.01,2013-02-18 09:55:00,
2013-02-18 04:00:00,65.3,61.3,29.87,South,184,11.2,19.2,87,0.00,,---,0.00,VWS V14.01,2013-02-18 10:00:00,
2013-02-18 04:05:00,65.2,61.2,29.87,South,173,6.2,14.2,87,0.00,,---,0.00,VWS V14.01,2013-02-18 10:05:00,
2013-02-18 04:10:00,65.2,61.2,29.87,South,172,9.2,13.2,87,0.00,,---,0.00,VWS V14.01,2013-02-18 10:10:00,
2013-02-18 04:15:00,65.2,61.6,29.87,South,190,12.2,18.2,88,0.00,,---,0.00,VWS V14.01,2013-02-18 10:15:00,
2013-02-18 04:20:00,65.2,61.6,29.87,SE,140,15.2,17.2,88,0.00,,---,0.00,VWS V14.01,2013-02-18 10:20:00,
2013-02-18 04:25:00,65.2,61.6,29.87,SSE,153,7.2,16.2,88,0.00,,---,0.00,VWS V14.01,2013-02-18 10:25:00,
2013-02-18 04:30:00,65.2,61.6,29.86,SE,144,7.2,14.2,88,0.00,,---,0.00,VWS V14.01,2013-02-18 10:30:00,
2013-02-18 04:35:00,65.2,61.6,29.86,SSE,159,10.2,16.2,88,0.00,,---,0.00,VWS V14.01,2013-02-18 10:35:00,
2013-02-18 04:40:00,65.0,61.4,29.86,SSE,155,5.2,14.2,88,0.00,,---,0.00,VWS V14.01,2013-02-18 10:40:00,
2013-02-18 04:45:00,65.2,61.9,29.86,South,175,11.2,14.2,89,0.00,,---,0.00,VWS V14.01,2013-02-18 10:45:00,
2013-02-18 04:50:00,65.0,61.7,29.86,SSE,149,4.2,13.2,89,0.00,,---,0.00,VWS V14.01,2013-02-18 10:50:00,
2013-02-18 04:55:00,65.0,61.7,29.86,SE,138,7.2,14.2,89,0.00,,---,0.00,VWS V14.01,2013-02-18 10:55:00,
2013-02-18 05:00:00,65.2,61.6,29.85,South,173,5.2,14.2,88,0.00,,---,0.00,VWS V14.01,2013-02-18 11:00:00,
2013-02-18 05:05:00,65.2,61.6,29.85,SSE,153,7.2,15.2,88,0.00,,---,0.00,VWS V14.01,2013-02-18 11:05:00,
2013-02-18 05:10:00,65.3,61.7,29.85,SSE,159,4.2,14.2,88,0.00,,---,0.00,VWS V14.01,2013-02-18 11:10:00,
2013-02-18 05:15:00,65.3,61.7,29.85,SSE,151,7.2,16.2,88,0.00,,---,0.00,VWS V14.01,2013-02-18 11:15:00,
2013-02-18 05:20:00,65.3,61.7,29.85,SE,146,5.2,15.2,88,0.00,,---,0.00,VWS V14.01,2013-02-18 11:20:00,
2013-02-18 05:25:00,65.5,62.2,29.85,SSE,152,6.2,18.2,89,0.00,,---,0.00,VWS V14.01,2013-02-18 11:25:00,
2013-02-18 05:26:00,65.3,61.7,29.85,SSE,160,10.2,17.2,88,0.00,,---,0.00,VWS V14.01,2013-02-18 11:26:00,
2013-02-18 05:30:00,65.5,62.2,29.85,SSW,198,8.2,15.2,89,0.00,,---,0.00,VWS V14.01,2013-02-18 11:30:00,
2013-02-18 05:31:00,65.5,61.9,29.85,SSE,152,13.2,18.2,88,0.00,,---,0.00,VWS V14.01,2013-02-18 11:31:00,
2013-02-18 05:35:00,65.5,62.2,29.85,SE,142,11.2,14.2,89,0.00,,---,0.00,VWS V14.01,2013-02-18 11:35:00,
2013-02-18 05:36:00,65.5,61.9,29.85,SSE,147,16.2,16.2,88,0.00,,---,0.00,VWS V14.01,2013-02-18 11:36:00,
2013-02-18 05:40:00,65.5,62.5,29.85,SSE,156,14.2,15.2,90,0.00,,---,0.00,VWS V14.01,2013-02-18 11:40:00,
2013-02-18 05:41:00,65.5,61.9,29.85,SE,144,10.2,17.2,88,0.00,,---,0.00,VWS V14.01,2013-02-18 11:41:00,
2013-02-18 05:45:00,65.6,62.6,29.86,SSE,155,11.2,16.2,90,0.00,,---,0.00,VWS V14.01,2013-02-18 11:45:00,
2013-02-18 05:46:00,65.5,61.9,29.85,SSE,148,8.2,15.2,88,0.00,,---,0.00,VWS V14.01,2013-02-18 11:46:00,
2013-02-18 05:50:00,65.6,62.6,29.86,SE,146,4.2,14.2,90,0.00,,---,0.00,VWS V14.01,2013-02-18 11:50:00,
2013-02-18 05:51:00,65.5,61.9,29.85,South,184,12.2,16.2,88,0.00,,---,0.00,VWS V14.01,2013-02-18 11:51:00,
2013-02-18 05:55:00,65.6,62.6,29.86,SE,139,7.2,15.2,90,0.00,,---,0.00,VWS V14.01,2013-02-18 11:55:00,
2013-02-18 05:56:00,65.5,62.2,29.85,ESE,114,12.2,13.2,89,0.00,,---,0.00,VWS V14.01,2013-02-18 11:56:00,
2013-02-18 06:00:00,65.6,62.6,29.85,SSE,148,9.2,16.2,90,0.00,,---,0.00,VWS V14.01,2013-02-18 12:00:00,
2013-02-18 06:01:00,65.5,62.2,29.84,SE,129,6.2,16.2,89,0.00,,---,0.00,VWS V14.01,2013-02-18 12:01:00,
2013-02-18 06:05:00,65.6,62.6,29.85,SSE,147,9.2,15.2,90,0.00,,---,0.00,VWS V14.01,2013-02-18 12:05:00,
2013-02-18 06:06:00,65.5,62.2,29.84,South,172,14.2,17.2,89,0.00,,---,0.00,VWS V14.01,2013-02-18 12:06:00,
2013-02-18 06:10:00,65.6,62.3,29.85,SE,145,4.2,15.2,89,0.00,,---,0.00,VWS V14.01,2013-02-18 12:10:00,
2013-02-18 06:11:00,65.5,62.2,29.84,SE,140,13.2,14.2,89,0.00,,---,0.00,VWS V14.01,2013-02-18 12:11:00,
2013-02-18 06:15:00,65.8,62.5,29.86,South,186,8.2,17.2,89,0.00,,---,0.00,VWS V14.01,2013-02-18 12:15:00,
2013-02-18 06:16:00,65.5,62.2,29.85,SSE,164,12.2,16.2,89,0.00,,---,0.00,VWS V14.01,2013-02-18 12:16:00,
2013-02-18 06:20:00,65.8,62.5,29.86,SSE,156,10.2,16.2,89,0.00,,---,0.00,VWS V14.01,2013-02-18 12:20:00,
2013-02-18 06:21:00,65.5,62.2,29.85,SSE,155,6.2,15.2,89,0.00,,---,0.00,VWS V14.01,2013-02-18 12:21:00,
2013-02-18 06:25:00,65.8,62.5,29.86,SSE,161,11.2,15.2,89,0.00,,---,0.00,VWS V14.01,2013-02-18 12:25:00,
2013-02-18 06:26:00,65.5,62.2,29.85,SSE,153,6.2,18.2,89,0.00,,---,0.00,VWS V14.01,2013-02-18 12:26:00,
2013-02-18 06:30:00,65.8,62.5,29.86,SSE,164,14.2,16.2,89,0.00,,---,0.00,VWS V14.01,2013-02-18 12:30:00,
2013-02-18 06:31:00,65.5,62.2,29.85,SSE,163,12.2,15.2,89,0.00,,---,0.00,VWS V14.01,2013-02-18 12:31:00,
2013-02-18 06:35:00,65.8,62.5,29.86,SSE,147,6.2,14.2,89,0.00,,---,0.00,VWS V14.01,2013-02-18 12:35:00,
2013-02-18 06:36:00,65.5,62.2,29.85,SSE,157,10.2,14.2,89,0.00,,---,0.00,VWS V14.01,2013-02-18 12:36:00,
2013-02-18 06:40:00,65.8,62.5,29.86,SSE,157,7.2,14.2,89,0.00,,---,0.00,VWS V14.01,2013-02-18 12:40:00,
2013-02-18 06:41:00,65.5,62.5,29.85,SSE,151,13.2,15.2,90,0.00,,---,0.00,VWS V14.01,2013-02-18 12:41:00,
2013-02-18 06:45:00,65.8,62.5,29.86,SE,136,10.2,12.2,89,0.00,,---,0.00,VWS V14.01,2013-02-18 12:45:00,
2013-02-18 06:46:00,65.6,62.6,29.85,SSE,158,11.2,16.2,90,0.00,,---,0.00,VWS V14.01,2013-02-18 12:46:00,
2013-02-18 06:50:00,65.8,62.5,29.86,SSE,165,5.2,14.2,89,0.00,,---,0.00,VWS V14.01,2013-02-18 12:50:00,
2013-02-18 06:51:00,65.6,62.6,29.85,SE,146,5.2,14.2,90,0.00,,---,0.00,VWS V14.01,2013-02-18 12:51:00,
2013-02-18 06:55:00,65.8,62.5,29.86,SSE,153,8.2,19.2,89,0.00,,---,0.00,VWS V14.01,2013-02-18 12:55:00,
2013-02-18 06:56:00,65.6,62.6,29.85,SSE,165,8.2,15.2,90,0.00,,---,0.00,VWS V14.01,2013-02-18 12:56:00,
2013-02-18 07:00:00,65.8,62.5,29.87,SSE,152,10.2,18.2,89,0.00,,---,0.00,VWS V14.01,2013-02-18 13:00:00,
2013-02-18 07:01:00,65.6,62.6,29.85,South,174,7.2,16.2,90,0.00,,---,0.00,VWS V14.01,2013-02-18 13:01:00,
2013-02-18 07:05:00,66.0,62.7,29.87,SE,134,7.2,13.2,89,0.00,,---,0.00,VWS V14.01,2013-02-18 13:05:00,
2013-02-18 07:06:00,65.6,62.6,29.85,SSE,165,12.2,15.2,90,0.00,,---,0.00,VWS V14.01,2013-02-18 13:06:00,
2013-02-18 07:10:00,66.0,62.7,29.87,SSE,157,8.2,18.2,89,0.00,,---,0.00,VWS V14.01,2013-02-18 13:10:00,
2013-02-18 07:11:00,65.6,62.3,29.85,SE,144,5.2,15.2,89,0.00,,---,0.00,VWS V14.01,2013-02-18 13:11:00,
2013-02-18 07:15:00,66.0,62.7,29.87,SSE,152,14.2,14.2,89,0.00,,---,0.00,VWS V14.01,2013-02-18 13:15:00,
2013-02-18 07:16:00,65.8,62.5,29.86,SSE,157,11.2,17.2,89,0.00,,---,0.00,VWS V14.01,2013-02-18 13:16:00,
2013-02-18 07:20:00,66.0,62.7,29.87,SSW,193,7.2,17.2,89,0.00,,---,0.00,VWS V14.01,2013-02-18 13:20:00,
2013-02-18 07:21:00,65.8,62.5,29.86,SSE,147,7.2,16.2,89,0.00,,---,0.00,VWS V14.01,2013-02-18 13:21:00,
2013-02-18 07:25:00,66.1,62.8,29.87,SSE,150,13.2,15.2,89,0.00,,---,0.00,VWS V14.01,2013-02-18 13:25:00,
2013-02-18 07:26:00,65.8,62.5,29.86,South,170,8.2,15.2,89,0.00,,---,0.00,VWS V14.01,2013-02-18 13:26:00,
2013-02-18 07:30:00,66.1,62.8,29.87,South,172,10.2,14.2,89,0.00,,---,0.00,VWS V14.01,2013-02-18 13:30:00,
2013-02-18 07:31:00,65.8,62.5,29.86,SSE,164,14.2,16.2,89,0.00,,---,0.00,VWS V14.01,2013-02-18 13:31:00,
2013-02-18 07:35:00,66.1,62.8,29.87,SE,146,10.2,14.2,89,0.00,,---,0.00,VWS V14.01,2013-02-18 13:35:00,
2013-02-18 07:36:00,65.8,62.5,29.86,SSE,147,6.2,14.2,89,0.00,,---,0.00,VWS V14.01,2013-02-18 13:36:00,
2013-02-18 07:40:00,66.1,62.8,29.87,SSE,162,6.2,13.2,89,0.00,,---,0.00,VWS V14.01,2013-02-18 13:40:00,
2013-02-18 07:41:00,65.8,62.5,29.86,SSE,157,7.2,14.2,89,0.00,,---,0.00,VWS V14.01,2013-02-18 13:41:00,
2013-02-18 07:45:00,66.1,63.1,29.87,SSE,152,8.2,12.2,90,0.00,,---,0.00,VWS V14.01,2013-02-18 13:45:00,
2013-02-18 07:46:00,65.8,62.5,29.86,SE,135,11.2,12.2,89,0.00,,---,0.00,VWS V14.01,2013-02-18 13:46:00,
2013-02-18 07:50:00,66.1,63.1,29.87,SSE,166,6.2,13.2,90,0.00,,---,0.00,VWS V14.01,2013-02-18 13:50:00,
2013-02-18 07:51:00,65.8,62.5,29.86,SSE,165,6.2,14.2,89,0.00,,---,0.00,VWS V14.01,2013-02-18 13:51:00,
2013-02-18 07:55:00,66.3,63.0,29.87,SSE,159,5.2,16.2,89,0.00,,---,0.00,VWS V14.01,2013-02-18 13:55:00,
2013-02-18 07:56:00,65.8,62.5,29.86,SSE,153,12.2,19.2,89,0.00,,---,0.00,VWS V14.01,2013-02-18 13:56:00,
2013-02-18 08:00:00,66.3,63.0,29.88,SSW,196,7.2,12.2,89,0.00,,---,0.00,VWS V14.01,2013-02-18 14:00:00,
2013-02-18 08:01:00,65.8,62.5,29.87,SSE,153,11.2,18.2,89,0.00,,---,0.00,VWS V14.01,2013-02-18 14:01:00,
2013-02-18 08:05:00,66.3,63.0,29.88,SSE,163,3.2,13.2,89,0.00,,---,0.00,VWS V14.01,2013-02-18 14:05:00,
2013-02-18 08:06:00,66.0,62.7,29.87,SE,126,3.2,13.2,89,0.00,,---,0.00,VWS V14.01,2013-02-18 14:06:00,
2013-02-18 08:10:00,66.4,63.1,29.88,South,185,7.2,12.2,89,0.00,,---,0.00,VWS V14.01,2013-02-18 14:10:00,
2013-02-18 08:11:00,66.0,62.7,29.87,SSE,148,14.2,18.2,89,0.00,,---,0.00,VWS V14.01,2013-02-18 14:11:00,
2013-02-18 08:15:00,66.4,63.1,29.89,SSE,153,7.2,11.2,89,0.00,,---,0.00,VWS V14.01,2013-02-18 14:15:00,
2013-02-18 08:16:00,66.0,62.7,29.87,SSE,165,13.2,14.2,89,0.00,,---,0.00,VWS V14.01,2013-02-18 14:16:00,
2013-02-18 08:20:00,66.4,63.1,29.89,SSE,167,7.2,13.2,89,0.00,,---,0.00,VWS V14.01,2013-02-18 14:20:00,
2013-02-18 08:21:00,66.0,62.7,29.87,SSW,210,13.2,17.2,89,0.00,,---,0.00,VWS V14.01,2013-02-18 14:21:00,
2013-02-18 08:25:00,66.4,63.1,29.89,South,171,4.2,15.2,89,0.00,,---,0.00,VWS V14.01,2013-02-18 14:25:00,
2013-02-18 08:26:00,66.1,62.8,29.87,SSE,150,13.2,15.2,89,0.00,,---,0.00,VWS V14.01,2013-02-18 14:26:00,
2013-02-18 08:30:00,66.3,63.3,29.89,SSE,160,7.2,15.2,90,0.00,,---,0.00,VWS V14.01,2013-02-18 14:30:00,
2013-02-18 08:31:00,66.1,62.8,29.87,SE,145,12.2,12.2,89,0.00,,---,0.00,VWS V14.01,2013-02-18 14:31:00,
2013-02-18 08:35:00,66.4,63.4,29.89,South,176,4.2,14.2,90,0.00,,---,0.00,VWS V14.01,2013-02-18 14:35:00,
2013-02-18 08:36:00,66.1,62.8,29.87,SE,146,10.2,14.2,89,0.00,,---,0.00,VWS V14.01,2013-02-18 14:36:00,
2013-02-18 08:40:00,66.4,63.4,29.89,SSE,167,12.2,15.2,90,0.00,,---,0.00,VWS V14.01,2013-02-18 14:40:00,
2013-02-18 08:41:00,66.1,62.8,29.87,SSE,162,6.2,13.2,89,0.00,,---,0.00,VWS V14.01,2013-02-18 14:41:00,
2013-02-18 08:45:00,66.6,63.6,29.89,South,178,7.2,14.2,90,0.00,,---,0.00,VWS V14.01,2013-02-18 14:45:00,
2013-02-18 08:46:00,66.1,63.1,29.87,SSE,152,8.2,12.2,90,0.00,,---,0.00,VWS V14.01,2013-02-18 14:46:00,
2013-02-18 08:50:00,66.6,63.3,29.89,SSE,161,7.2,12.2,89,0.00,,---,0.00,VWS V14.01,2013-02-18 14:50:00,
2013-02-18 08:51:00,66.1,63.1,29.87,SSE,166,6.2,13.2,90,0.00,,---,0.00,VWS V14.01,2013-02-18 14:51:00,
2013-02-18 08:55:00,66.8,63.5,29.89,SSE,165,7.2,12.2,89,0.00,,---,0.00,VWS V14.01,2013-02-18 14:55:00,
2013-02-18 08:56:00,66.3,63.0,29.87,SSE,159,5.2,16.2,89,0.00,,---,0.00,VWS V14.01,2013-02-18 14:56:00,
2013-02-18 09:00:00,66.9,63.6,29.89,SSE,155,7.2,16.2,89,0.00,,---,0.00,VWS V14.01,2013-02-18 15:00:00,
2013-02-18 09:01:00,66.3,63.0,29.88,South,182,5.2,7.2,89,0.00,,---,0.00,VWS V14.01,2013-02-18 15:01:00,
2013-02-18 09:05:00,67.1,63.4,29.89,South,176,6.2,14.2,88,0.00,,---,0.00,VWS V14.01,2013-02-18 15:05:00,
2013-02-18 09:06:00,66.3,63.0,29.88,SSE,163,3.2,13.2,89,0.00,,---,0.00,VWS V14.01,2013-02-18 15:06:00,
2013-02-18 09:10:00,67.1,63.4,29.89,South,171,8.2,16.2,88,0.00,,---,0.00,VWS V14.01,2013-02-18 15:10:00,
2013-02-18 09:11:00,66.4,63.1,29.88,South,185,7.2,12.2,89,0.00,,---,0.00,VWS V14.01,2013-02-18 15:11:00,
2013-02-18 09:15:00,67.1,63.4,29.88,SSE,154,13.2,19.2,88,0.00,,---,0.00,VWS V14.01,2013-02-18 15:15:00,
2013-02-18 09:16:00,66.4,63.1,29.89,SSE,153,7.2,11.2,89,0.00,,---,0.00,VWS V14.01,2013-02-18 15:16:00,
2013-02-18 09:20:00,67.4,63.7,29.88,South,185,9.2,16.2,88,0.00,,---,0.00,VWS V14.01,2013-02-18 15:20:00,
2013-02-18 09:21:00,66.4,63.1,29.89,SSE,167,7.2,13.2,89,0.00,,---,0.00,VWS V14.01,2013-02-18 15:21:00,
2013-02-18 09:25:00,67.6,63.6,29.88,South,172,7.2,17.2,87,0.00,,---,0.00,VWS V14.01,2013-02-18 15:25:00,
2013-02-18 09:26:00,66.4,63.1,29.89,South,171,5.2,15.2,89,0.00,,---,0.00,VWS V14.01,2013-02-18 15:26:00,
2013-02-18 09:30:00,67.8,63.8,29.88,South,180,13.2,18.2,87,0.00,,---,0.00,VWS V14.01,2013-02-18 15:30:00,
2013-02-18 09:31:00,66.3,63.3,29.89,SSE,160,7.2,15.2,90,0.00,,---,0.00,VWS V14.01,2013-02-18 15:31:00,
2013-02-18 09:35:00,67.8,63.8,29.88,South,176,10.2,23.2,87,0.00,,---,0.00,VWS V14.01,2013-02-18 15:35:00,
2013-02-18 09:36:00,66.4,63.4,29.89,South,176,4.2,14.2,90,0.00,,---,0.00,VWS V14.01,2013-02-18 15:36:00,
2013-02-18 09:40:00,68.3,64.0,29.88,SSE,164,7.2,19.2,86,0.00,,---,0.00,VWS V14.01,2013-02-18 15:40:00,
2013-02-18 09:41:00,66.4,63.4,29.89,South,188,10.2,15.2,90,0.00,,---,0.00,VWS V14.01,2013-02-18 15:41:00,
2013-02-18 09:45:00,68.3,63.6,29.87,SSE,153,20.2,21.2,85,0.00,,---,0.00,VWS V14.01,2013-02-18 15:45:00,
2013-02-18 09:46:00,66.6,63.6,29.89,South,178,7.2,14.2,90,0.00,,---,0.00,VWS V14.01,2013-02-18 15:46:00,
2013-02-18 09:50:00,68.6,63.9,29.87,South,170,8.2,20.2,85,0.00,,---,0.00,VWS V14.01,2013-02-18 15:50:00,
2013-02-18 09:51:00,66.6,63.3,29.89,SSE,161,7.2,12.2,89,0.00,,---,0.00,VWS V14.01,2013-02-18 15:51:00,
2013-02-18 09:55:00,69.3,64.3,29.87,South,173,7.2,18.2,84,0.00,,---,0.00,VWS V14.01,2013-02-18 15:55:00,
2013-02-18 09:56:00,66.8,63.5,29.89,SSE,158,7.2,12.2,89,0.00,,---,0.00,VWS V14.01,2013-02-18 15:56:00,
2013-02-18 10:00:00,69.3,63.9,29.87,SSE,167,10.2,20.2,83,0.00,,---,0.00,VWS V14.01,2013-02-18 16:00:00,
2013-02-18 10:01:00,66.9,63.6,29.89,SSE,155,7.2,16.2,89,0.00,,---,0.00,VWS V14.01,2013-02-18 16:01:00,
2013-02-18 10:05:00,69.3,64.3,29.87,South,182,14.2,16.2,84,0.00,,---,0.00,VWS V14.01,2013-02-18 16:05:00,
2013-02-18 10:06:00,67.1,63.4,29.89,SSE,167,7.2,7.2,88,0.00,,---,0.00,VWS V14.01,2013-02-18 16:06:00,
2013-02-18 10:10:00,69.1,64.1,29.87,South,180,11.2,20.2,84,0.00,,---,0.00,VWS V14.01,2013-02-18 16:10:00,
2013-02-18 10:11:00,67.1,63.4,29.89,South,171,8.2,16.2,88,0.00,,---,0.00,VWS V14.01,2013-02-18 16:11:00,
2013-02-18 10:15:00,69.3,64.3,29.87,SSE,155,14.2,18.2,84,0.00,,---,0.00,VWS V14.01,2013-02-18 16:15:00,
2013-02-18 10:16:00,67.1,63.4,29.88,SSE,154,13.2,19.2,88,0.00,,---,0.00,VWS V14.01,2013-02-18 16:16:00,
2013-02-18 10:20:00,69.3,64.3,29.87,SSE,163,7.2,18.2,84,0.00,,---,0.00,VWS V14.01,2013-02-18 16:20:00,
2013-02-18 10:21:00,67.4,63.7,29.88,South,185,9.2,16.2,88,0.00,,---,0.00,VWS V14.01,2013-02-18 16:21:00,
2013-02-18 10:25:00,70.4,64.7,29.87,SSW,194,10.2,18.2,82,0.00,,---,0.00,VWS V14.01,2013-02-18 16:25:00,
2013-02-18 10:26:00,67.6,63.6,29.88,South,172,7.2,17.2,87,0.00,,---,0.00,VWS V14.01,2013-02-18 16:26:00,
2013-02-18 10:30:00,70.4,64.7,29.87,SE,130,10.2,17.2,82,0.00,,---,0.00,VWS V14.01,2013-02-18 16:30:00,
2013-02-18 10:31:00,67.8,63.8,29.88,SE,144,12.2,18.2,87,0.00,,---,0.00,VWS V14.01,2013-02-18 16:31:00,
2013-02-18 10:35:00,70.1,64.7,29.87,SSE,161,14.2,19.2,83,0.00,,---,0.00,VWS V14.01,2013-02-18 16:35:00,
2013-02-18 10:36:00,67.8,63.8,29.88,South,176,10.2,23.2,87,0.00,,---,0.00,VWS V14.01,2013-02-18 16:36:00,
2013-02-18 10:40:00,69.9,64.5,29.87,SE,124,12.2,16.2,83,0.00,,---,0.00,VWS V14.01,2013-02-18 16:40:00,
2013-02-18 10:41:00,68.3,64.0,29.88,SSE,164,7.2,19.2,86,0.00,,---,0.00,VWS V14.01,2013-02-18 16:41:00,
2013-02-18 10:45:00,69.8,64.8,29.87,SE,146,6.2,17.2,84,0.00,,---,0.00,VWS V14.01,2013-02-18 16:45:00,
2013-02-18 10:46:00,68.3,63.6,29.87,SSE,153,11.2,21.2,85,0.00,,---,0.00,VWS V14.01,2013-02-18 16:46:00,
2013-02-18 10:50:00,69.8,64.8,29.87,SSE,153,10.2,16.2,84,0.00,,---,0.00,VWS V14.01,2013-02-18 16:50:00,
2013-02-18 10:51:00,68.6,63.9,29.87,South,170,8.2,20.2,85,0.00,,---,0.00,VWS V14.01,2013-02-18 16:51:00,
2013-02-18 10:55:00,69.8,64.8,29.87,SSE,161,6.2,21.2,84,0.00,,---,0.00,VWS V14.01,2013-02-18 16:55:00,
2013-02-18 10:56:00,69.3,64.3,29.87,South,173,7.2,18.2,84,0.00,,---,0.00,VWS V14.01,2013-02-18 16:56:00,
2013-02-18 11:00:00,70.1,64.7,29.88,SSE,165,8.2,17.2,83,0.00,,---,0.00,VWS V14.01,2013-02-18 17:00:00,
2013-02-18 11:01:00,69.3,63.9,29.87,South,175,10.2,20.2,83,0.00,,---,0.00,VWS V14.01,2013-02-18 17:01:00,
2013-02-18 11:05:00,69.9,64.5,29.88,SSW,194,14.2,16.2,83,0.00,,---,0.00,VWS V14.01,2013-02-18 17:05:00,
2013-02-18 11:06:00,69.3,64.3,29.87,South,182,14.2,16.2,84,0.00,,---,0.00,VWS V14.01,2013-02-18 17:06:00,
2013-02-18 11:10:00,69.8,64.4,29.88,SSW,198,7.2,14.2,83,0.00,,---,0.00,VWS V14.01,2013-02-18 17:10:00,
2013-02-18 11:11:00,69.1,64.1,29.87,South,180,11.2,20.2,84,0.00,,---,0.00,VWS V14.01,2013-02-18 17:11:00,
2013-02-18 11:15:00,69.6,64.6,29.88,South,180,6.2,14.2,84,0.00,,---,0.00,VWS V14.01,2013-02-18 17:15:00,
2013-02-18 11:16:00,69.3,64.3,29.87,SSE,155,14.2,18.2,84,0.00,,---,0.00,VWS V14.01,2013-02-18 17:16:00,
2013-02-18 11:20:00,69.8,64.8,29.88,South,169,13.2,14.2,84,0.00,,---,0.00,VWS V14.01,2013-02-18 17:20:00,
2013-02-18 11:21:00,69.3,64.3,29.87,SSE,163,7.2,18.2,84,0.00,,---,0.00,VWS V14.01,2013-02-18 17:21:00,
2013-02-18 11:25:00,70.3,64.9,29.88,South,173,14.2,16.2,83,0.00,,---,0.00,VWS V14.01,2013-02-18 17:25:00,
2013-02-18 11:26:00,70.4,64.7,29.87,SSW,194,10.2,18.2,82,0.00,,---,0.00,VWS V14.01,2013-02-18 17:26:00,
2013-02-18 11:30:00,70.9,65.1,29.87,SSE,165,9.2,18.2,82,0.00,,---,0.00,VWS V14.01,2013-02-18 17:30:00,
2013-02-18 11:31:00,70.4,64.7,29.87,South,172,12.2,17.2,82,0.00,,---,0.00,VWS V14.01,2013-02-18 17:31:00,
2013-02-18 11:35:00,71.3,65.2,29.87,SE,146,4.2,15.2,81,0.00,,---,0.00,VWS V14.01,2013-02-18 17:35:00,
2013-02-18 11:36:00,70.1,64.7,29.87,SSE,161,14.2,19.2,83,0.00,,---,0.00,VWS V14.01,2013-02-18 17:36:00,
2013-02-18 11:40:00,71.5,65.4,29.87,South,186,4.2,19.2,81,0.00,,---,0.00,VWS V14.01,2013-02-18 17:40:00,
2013-02-18 11:41:00,69.9,64.5,29.87,SE,124,12.2,16.2,83,0.00,,---,0.00,VWS V14.01,2013-02-18 17:41:00,
2013-02-18 11:45:00,71.3,65.2,29.86,SSE,153,13.2,19.2,81,0.00,,---,0.00,VWS V14.01,2013-02-18 17:45:00,
2013-02-18 11:46:00,69.8,64.8,29.87,SE,146,6.2,17.2,84,0.00,,---,0.00,VWS V14.01,2013-02-18 17:46:00,
2013-02-18 11:50:00,72.0,65.5,29.86,SSE,164,12.2,22.2,80,0.00,,---,0.00,VWS V14.01,2013-02-18 17:50:00,
2013-02-18 11:51:00,69.8,64.8,29.87,SSE,153,14.2,16.2,84,0.00,,---,0.00,VWS V14.01,2013-02-18 17:51:00,
2013-02-18 11:55:00,72.1,65.6,29.86,SE,142,14.2,23.2,80,0.00,,---,0.00,VWS V14.01,2013-02-18 17:55:00,
2013-02-18 11:56:00,69.8,64.8,29.87,SSE,159,6.2,21.2,84,0.00,,---,0.00,VWS V14.01,2013-02-18 17:56:00,
2013-02-18 12:00:00,72.0,65.5,29.85,SSE,148,16.2,20.2,80,0.00,,---,0.00,VWS V14.01,2013-02-18 18:00:00,
2013-02-18 12:01:00,70.1,65.1,29.88,SSE,167,8.2,17.2,84,0.00,,---,0.00,VWS V14.01,2013-02-18 18:01:00,
2013-02-18 12:05:00,72.1,65.6,29.85,South,183,9.2,19.2,80,0.00,,---,0.00,VWS V14.01,2013-02-18 18:05:00,
2013-02-18 12:06:00,69.9,64.5,29.88,South,174,6.2,16.2,83,0.00,,---,0.00,VWS V14.01,2013-02-18 18:06:00,
2013-02-18 12:10:00,72.1,65.2,29.85,SSE,161,10.2,21.2,79,0.00,,---,0.00,VWS V14.01,2013-02-18 18:10:00,
2013-02-18 12:11:00,69.8,64.4,29.88,SSW,198,7.2,14.2,83,0.00,,---,0.00,VWS V14.01,2013-02-18 18:11:00,
2013-02-18 12:15:00,72.5,65.6,29.84,SE,141,11.2,22.2,79,0.00,,---,0.00,VWS V14.01,2013-02-18 18:15:00,
2013-02-18 12:16:00,69.6,64.6,29.88,South,184,6.2,14.2,84,0.00,,---,0.00,VWS V14.01,2013-02-18 18:16:00,
2013-02-18 12:20:00,72.7,65.8,29.84,South,176,17.2,19.2,79,0.00,,---,0.00,VWS V14.01,2013-02-18 18:20:00,
2013-02-18 12:21:00,69.8,64.8,29.88,South,169,13.2,14.2,84,0.00,,---,0.00,VWS V14.01,2013-02-18 18:21:00,
2013-02-18 12:25:00,72.8,65.6,29.84,South,177,7.2,21.2,78,0.00,,---,0.00,VWS V14.01,2013-02-18 18:25:00,
2013-02-18 12:26:00,70.3,64.9,29.88,SSE,157,8.2,16.2,83,0.00,,---,0.00,VWS V14.01,2013-02-18 18:26:00,
2013-02-18 12:30:00,73.0,66.1,29.85,SSE,155,9.2,19.2,79,0.00,,---,0.00,VWS V14.01,2013-02-18 18:30:00,
2013-02-18 12:31:00,70.9,65.1,29.87,SSE,165,9.2,18.2,82,0.00,,---,0.00,VWS V14.01,2013-02-18 18:31:00,
2013-02-18 12:35:00,72.7,65.8,29.85,SSE,161,8.2,17.2,79,0.00,,---,0.00,VWS V14.01,2013-02-18 18:35:00,
2013-02-18 12:36:00,71.3,65.2,29.87,SE,146,4.2,15.2,81,0.00,,---,0.00,VWS V14.01,2013-02-18 18:36:00,
2013-02-18 12:40:00,72.7,65.8,29.85,SE,140,11.2,13.2,79,0.00,,---,0.00,VWS V14.01,2013-02-18 18:40:00,
2013-02-18 12:41:00,71.5,65.4,29.87,South,186,4.2,19.2,81,0.00,,---,0.00,VWS V14.01,2013-02-18 18:41:00,
2013-02-18 12:45:00,72.7,65.8,29.85,SE,131,7.2,16.2,79,0.00,,---,0.00,VWS V14.01,2013-02-18 18:45:00,
2013-02-18 12:46:00,71.3,65.2,29.86,SSE,153,13.2,19.2,81,0.00,,---,0.00,VWS V14.01,2013-02-18 18:46:00,
2013-02-18 12:50:00,72.3,65.4,29.85,SE,136,10.2,19.2,79,0.00,,---,0.00,VWS V14.01,2013-02-18 18:50:00,
2013-02-18 12:51:00,72.0,65.5,29.86,South,172,17.2,22.2,80,0.00,,---,0.00,VWS V14.01,2013-02-18 18:51:00,
2013-02-18 12:55:00,72.5,65.6,29.85,South,172,10.2,22.2,79,0.00,,---,0.00,VWS V14.01,2013-02-18 18:55:00,
2013-02-18 12:56:00,72.1,65.6,29.86,SSE,165,14.2,23.2,80,0.00,,---,0.00,VWS V14.01,2013-02-18 18:56:00,
2013-02-18 13:00:00,72.5,65.6,29.83,South,182,10.2,21.2,79,0.00,,---,0.00,VWS V14.01,2013-02-18 19:00:00,
2013-02-18 13:01:00,72.0,65.5,29.85,SSE,161,6.2,20.2,80,0.00,,---,0.00,VWS V14.01,2013-02-18 19:01:00,
2013-02-18 13:05:00,73.2,65.6,29.83,SSE,153,12.2,19.2,77,0.00,,---,0.00,VWS V14.01,2013-02-18 19:05:00,
2013-02-18 13:06:00,72.1,65.6,29.85,South,183,9.2,19.2,80,0.00,,---,0.00,VWS V14.01,2013-02-18 19:06:00,
2013-02-18 13:10:00,73.5,65.9,29.83,SE,130,13.2,25.2,77,0.00,,---,0.00,VWS V14.01,2013-02-18 19:10:00,
2013-02-18 13:11:00,72.1,65.2,29.85,SSE,161,10.2,21.2,79,0.00,,---,0.00,VWS V14.01,2013-02-18 19:11:00,
2013-02-18 13:15:00,73.2,65.6,29.81,SSE,164,16.2,25.2,77,0.00,,---,0.00,VWS V14.01,2013-02-18 19:15:00,
2013-02-18 13:16:00,72.5,65.6,29.84,SE,141,11.2,22.2,79,0.00,,---,0.00,VWS V14.01,2013-02-18 19:16:00,
2013-02-18 13:20:00,72.8,65.2,29.81,SSE,161,20.2,29.2,77,0.00,,---,0.00,VWS V14.01,2013-02-18 19:20:00,
2013-02-18 13:21:00,72.7,65.8,29.84,SSE,154,13.2,19.2,79,0.00,,---,0.00,VWS V14.01,2013-02-18 19:21:00,
2013-02-18 13:25:00,72.8,65.2,29.81,SE,133,16.2,23.2,77,0.00,,---,0.00,VWS V14.01,2013-02-18 19:25:00,
2013-02-18 13:26:00,72.8,65.6,29.84,South,177,7.2,21.2,78,0.00,,---,0.00,VWS V14.01,2013-02-18 19:26:00,
2013-02-18 13:30:00,72.8,65.2,29.81,SE,134,17.2,23.2,77,0.00,,---,0.00,VWS V14.01,2013-02-18 19:30:00,
2013-02-18 13:31:00,73.0,66.1,29.85,SE,136,12.2,19.2,79,0.00,,---,0.00,VWS V14.01,2013-02-18 19:31:00,
2013-02-18 13:35:00,72.8,65.2,29.81,SE,139,12.2,24.2,77,0.00,,---,0.00,VWS V14.01,2013-02-18 19:35:00,
2013-02-18 13:36:00,72.7,65.8,29.85,SSE,157,14.2,17.2,79,0.00,,---,0.00,VWS V14.01,2013-02-18 19:36:00,
2013-02-18 13:40:00,73.0,65.0,29.81,SSE,154,10.2,22.2,76,0.00,,---,0.00,VWS V14.01,2013-02-18 19:40:00,
2013-02-18 13:41:00,72.7,65.8,29.85,SE,140,11.2,13.2,79,0.00,,---,0.00,VWS V14.01,2013-02-18 19:41:00,
2013-02-18 13:45:00,72.8,65.2,29.81,SSE,157,14.2,26.2,77,0.00,,---,0.00,VWS V14.01,2013-02-18 19:45:00,
2013-02-18 13:46:00,72.7,65.8,29.85,SE,131,7.2,16.2,79,0.00,,---,0.00,VWS V14.01,2013-02-18 19:46:00,
2013-02-18 13:50:00,73.0,65.0,29.81,SE,146,26.2,26.2,76,0.00,,---,0.00,VWS V14.01,2013-02-18 19:50:00,
2013-02-18 13:51:00,72.3,65.4,29.85,SE,136,10.2,19.2,79,0.00,,---,0.00,VWS V14.01,2013-02-18 19:51:00,
2013-02-18 13:55:00,72.8,65.2,29.81,SSW,192,13.2,26.2,77,0.00,,---,0.00,VWS V14.01,2013-02-18 19:55:00,
2013-02-18 13:56:00,72.5,65.6,29.85,South,172,10.2,22.2,79,0.00,,---,0.00,VWS V14.01,2013-02-18 19:56:00,
2013-02-18 14:00:00,72.7,65.1,29.80,SSE,161,11.2,26.2,77,0.00,,---,0.00,VWS V14.01,2013-02-18 20:00:00,
2013-02-18 14:01:00,72.5,65.6,29.83,South,182,10.2,21.2,79,0.00,,---,0.00,VWS V14.01,2013-02-18 20:01:00,
2013-02-18 14:05:00,72.8,64.8,29.80,SSE,161,8.2,22.2,76,0.00,,---,0.00,VWS V14.01,2013-02-18 20:05:00,
2013-02-18 14:06:00,73.2,65.6,29.83,SSE,153,12.2,19.2,77,0.00,,---,0.00,VWS V14.01,2013-02-18 20:06:00,
2013-02-18 14:10:00,73.0,65.0,29.80,South,170,16.2,24.2,76,0.00,,---,0.00,VWS V14.01,2013-02-18 20:10:00,
2013-02-18 14:11:00,73.5,65.9,29.83,SE,130,13.2,25.2,77,0.00,,---,0.00,VWS V14.01,2013-02-18 20:11:00,
2013-02-18 14:15:00,72.8,64.4,29.80,South,181,11.2,24.2,75,0.00,,---,0.00,VWS V14.01,2013-02-18 20:15:00,
2013-02-18 14:16:00,73.2,65.6,29.81,SSE,164,16.2,25.2,77,0.00,,---,0.00,VWS V14.01,2013-02-18 20:16:00,
2013-02-18 14:20:00,73.0,64.6,29.80,SSE,166,12.2,23.2,75,0.00,,---,0.00,VWS V14.01,2013-02-18 20:20:00,
2013-02-18 14:21:00,72.8,65.2,29.81,SSE,161,20.2,29.2,77,0.00,,---,0.00,VWS V14.01,2013-02-18 20:21:00,
2013-02-18 14:25:00,72.7,64.3,29.80,SSE,159,15.2,23.2,75,0.00,,---,0.00,VWS V14.01,2013-02-18 20:25:00,
2013-02-18 14:26:00,72.8,65.2,29.81,SSE,153,12.2,16.2,77,0.00,,---,0.00,VWS V14.01,2013-02-18 20:26:00,
2013-02-18 14:30:00,72.7,64.7,29.80,SE,146,17.2,22.2,76,0.00,,---,0.00,VWS V14.01,2013-02-18 20:30:00,
2013-02-18 14:31:00,72.8,65.2,29.81,SSE,161,16.2,17.2,77,0.00,,---,0.00,VWS V14.01,2013-02-18 20:31:00,
2013-02-18 14:35:00,72.7,64.3,29.80,South,175,15.2,22.2,75,0.00,,---,0.00,VWS V14.01,2013-02-18 20:35:00,
2013-02-18 14:36:00,72.8,65.2,29.81,SE,139,12.2,24.2,77,0.00,,---,0.00,VWS V14.01,2013-02-18 20:36:00,
2013-02-18 14:40:00,72.7,64.3,29.80,South,169,13.2,24.2,75,0.00,,---,0.00,VWS V14.01,2013-02-18 20:40:00,
2013-02-18 14:41:00,73.0,65.0,29.81,SSE,165,7.2,10.2,76,0.00,,---,0.00,VWS V14.01,2013-02-18 20:41:00,
2013-02-18 14:45:00,72.3,64.3,29.79,South,182,8.2,28.2,76,0.00,,---,0.00,VWS V14.01,2013-02-18 20:45:00,
2013-02-18 14:46:00,72.8,65.2,29.81,South,173,13.2,14.2,77,0.00,,---,0.00,VWS V14.01,2013-02-18 20:46:00,
2013-02-18 14:50:00,72.5,64.1,29.79,SSW,212,16.2,23.2,75,0.00,,---,0.00,VWS V14.01,2013-02-18 20:50:00,
2013-02-18 14:51:00,72.8,64.8,29.81,SSW,198,15.2,26.2,76,0.00,,---,0.00,VWS V14.01,2013-02-18 20:51:00,
2013-02-18 14:55:00,72.3,64.3,29.79,SSE,147,19.2,24.2,76,0.00,,---,0.00,VWS V14.01,2013-02-18 20:55:00,
2013-02-18 14:56:00,72.8,65.2,29.81,SE,141,13.2,14.2,77,0.00,,---,0.00,VWS V14.01,2013-02-18 20:56:00,
2013-02-18 15:00:00,72.3,64.3,29.79,South,173,10.2,21.2,76,0.00,,---,0.00,VWS V14.01,2013-02-18 21:00:00,
2013-02-18 15:01:00,72.7,65.1,29.80,SSE,155,8.2,11.2,77,0.00,,---,0.00,VWS V14.01,2013-02-18 21:01:00,
2013-02-18 15:05:00,72.1,64.1,29.79,SSE,154,15.2,24.2,76,0.00,,---,0.00,VWS V14.01,2013-02-18 21:05:00,
2013-02-18 15:06:00,72.8,64.8,29.80,South,185,12.2,12.2,76,0.00,,---,0.00,VWS V14.01,2013-02-18 21:06:00,
2013-02-18 15:10:00,72.1,63.8,29.79,South,170,17.2,23.2,75,0.00,,---,0.00,VWS V14.01,2013-02-18 21:10:00,
2013-02-18 15:11:00,73.0,65.0,29.80,SSE,157,15.2,17.2,76,0.00,,---,0.00,VWS V14.01,2013-02-18 21:11:00,
2013-02-18 15:15:00,72.1,64.1,29.79,SSE,168,9.2,22.2,76,0.00,,---,0.00,VWS V14.01,2013-02-18 21:15:00,
2013-02-18 15:16:00,72.8,64.4,29.80,SSE,167,16.2,16.2,75,0.00,,---,0.00,VWS V14.01,2013-02-18 21:16:00,
2013-02-18 15:20:00,71.8,64.2,29.79,SSE,160,19.2,23.2,77,0.00,,---,0.00,VWS V14.01,2013-02-18 21:20:00,
2013-02-18 15:21:00,73.0,64.6,29.80,SSE,156,19.2,20.2,75,0.00,,---,0.00,VWS V14.01,2013-02-18 21:21:00,
2013-02-18 15:25:00,71.8,64.2,29.79,SE,136,12.2,22.2,77,0.00,,---,0.00,VWS V14.01,2013-02-18 21:25:00,
2013-02-18 15:26:00,72.7,64.3,29.80,South,172,12.2,16.2,75,0.00,,---,0.00,VWS V14.01,2013-02-18 21:26:00,
2013-02-18 15:30:00,71.6,64.0,29.80,SE,146,14.2,23.2,77,0.00,,---,0.00,VWS V14.01,2013-02-18 21:30:00,
2013-02-18 15:31:00,72.7,64.3,29.80,SSE,156,18.2,22.2,75,0.00,,---,0.00,VWS V14.01,2013-02-18 21:31:00,
2013-02-18 15:35:00,71.8,64.2,29.80,SSE,150,14.2,18.2,77,0.00,,---,0.00,VWS V14.01,2013-02-18 21:35:00,
2013-02-18 15:36:00,72.7,64.3,29.80,SSE,157,15.2,18.2,75,0.00,,---,0.00,VWS V14.01,2013-02-18 21:36:00,
2013-02-18 15:40:00,71.6,64.0,29.80,SE,138,13.2,20.2,77,0.00,,---,0.00,VWS V14.01,2013-02-18 21:40:00,
2013-02-18 15:41:00,72.7,64.3,29.80,South,177,14.2,14.2,75,0.00,,---,0.00,VWS V14.01,2013-02-18 21:41:00,
2013-02-18 15:45:00,71.5,64.3,29.80,SSE,161,8.2,19.2,78,0.00,,---,0.00,VWS V14.01,2013-02-18 21:45:00,
2013-02-18 15:46:00,72.3,64.3,29.79,South,191,11.2,11.2,76,0.00,,---,0.00,VWS V14.01,2013-02-18 21:46:00,
2013-02-18 15:50:00,71.3,64.1,29.80,SSE,167,13.2,23.2,78,0.00,,---,0.00,VWS V14.01,2013-02-18 21:50:00,
2013-02-18 15:51:00,72.5,64.1,29.79,South,173,14.2,16.2,75,0.00,,---,0.00,VWS V14.01,2013-02-18 21:51:00,
2013-02-18 15:55:00,71.1,63.9,29.80,SSE,151,19.2,23.2,78,0.00,,---,0.00,VWS V14.01,2013-02-18 21:55:00,
2013-02-18 15:56:00,72.3,64.3,29.79,SSE,150,18.2,19.2,76,0.00,,---,0.00,VWS V14.01,2013-02-18 21:56:00,
2013-02-18 16:00:00,70.9,63.7,29.80,SE,146,11.2,25.2,78,0.00,,---,0.00,VWS V14.01,2013-02-18 22:00:00,
2013-02-18 16:01:00,72.3,64.3,29.79,South,172,10.2,13.2,76,0.00,,---,0.00,VWS V14.01,2013-02-18 22:01:00,
2013-02-18 16:05:00,70.8,64.3,29.80,SSE,153,11.2,20.2,80,0.00,,---,0.00,VWS V14.01,2013-02-18 22:05:00,
2013-02-18 16:06:00,72.1,64.1,29.79,South,184,9.2,15.2,76,0.00,,---,0.00,VWS V14.01,2013-02-18 22:06:00,
2013-02-18 16:10:00,70.6,64.1,29.80,SE,145,17.2,19.2,80,0.00,,---,0.00,VWS V14.01,2013-02-18 22:10:00,
2013-02-18 16:11:00,72.1,64.1,29.79,South,175,22.2,22.2,76,0.00,,---,0.00,VWS V14.01,2013-02-18 22:11:00,
2013-02-18 16:15:00,70.3,63.8,29.80,South,169,7.2,22.2,80,0.00,,---,0.00,VWS V14.01,2013-02-18 22:15:00,
2013-02-18 16:16:00,72.1,64.1,29.79,SSE,167,15.2,18.2,76,0.00,,---,0.00,VWS V14.01,2013-02-18 22:16:00,
2013-02-18 16:20:00,70.1,64.0,29.80,South,188,15.2,21.2,81,0.00,,---,0.00,VWS V14.01,2013-02-18 22:20:00,
2013-02-18 16:21:00,71.8,64.2,29.79,ESE,121,22.2,22.2,77,0.00,,---,0.00,VWS V14.01,2013-02-18 22:21:00,
2013-02-18 16:25:00,69.8,63.7,29.80,SSE,154,11.2,22.2,81,0.00,,---,0.00,VWS V14.01,2013-02-18 22:25:00,
2013-02-18 16:26:00,71.8,64.2,29.79,SSE,153,17.2,20.2,77,0.00,,---,0.00,VWS V14.01,2013-02-18 22:26:00,
2013-02-18 16:30:00,69.8,63.7,29.80,South,187,8.2,19.2,81,0.00,,---,0.00,VWS V14.01,2013-02-18 22:30:00,
2013-02-18 16:31:00,71.6,64.0,29.80,SE,132,5.2,14.2,77,0.00,,---,0.00,VWS V14.01,2013-02-18 22:31:00,
2013-02-18 16:35:00,69.8,64.1,29.80,SSE,159,6.2,20.2,82,0.00,,---,0.00,VWS V14.01,2013-02-18 22:35:00,
2013-02-18 16:36:00,71.8,64.2,29.80,South,172,12.2,16.2,77,0.00,,---,0.00,VWS V14.01,2013-02-18 22:36:00,
2013-02-18 16:40:00,69.9,63.8,29.80,SE,128,11.2,22.2,81,0.00,,---,0.00,VWS V14.01,2013-02-18 22:40:00,
2013-02-18 16:41:00,71.6,64.0,29.80,SSE,166,6.2,13.2,77,0.00,,---,0.00,VWS V14.01,2013-02-18 22:41:00,
2013-02-18 16:45:00,69.8,63.7,29.81,SSE,166,10.2,17.2,81,0.00,,---,0.00,VWS V14.01,2013-02-18 22:45:00,
2013-02-18 16:46:00,71.5,64.3,29.80,SSE,161,5.2,8.2,78,0.00,,---,0.00,VWS V14.01,2013-02-18 22:46:00,
2013-02-18 16:50:00,69.8,63.7,29.81,South,180,7.2,19.2,81,0.00,,---,0.00,VWS V14.01,2013-02-18 22:50:00,
2013-02-18 16:51:00,71.3,64.1,29.80,SE,141,13.2,22.2,78,0.00,,---,0.00,VWS V14.01,2013-02-18 22:51:00,
2013-02-18 16:55:00,69.6,63.5,29.81,SSE,152,7.2,17.2,81,0.00,,---,0.00,VWS V14.01,2013-02-18 22:55:00,
2013-02-18 16:56:00,71.1,63.9,29.80,SSE,164,15.2,19.2,78,0.00,,---,0.00,VWS V14.01,2013-02-18 22:56:00,
2013-02-18 17:00:00,69.4,63.7,29.81,SSE,163,11.2,16.2,82,0.00,,---,0.00,VWS V14.01,2013-02-18 23:00:00,
2013-02-18 17:01:00,70.9,64.1,29.80,SSE,148,13.2,14.2,79,0.00,,---,0.00,VWS V14.01,2013-02-18 23:01:00,
2013-02-18 17:05:00,69.1,63.7,29.81,SE,146,8.2,16.2,83,0.00,,---,0.00,VWS V14.01,2013-02-18 23:05:00,
2013-02-18 17:06:00,70.8,64.3,29.80,SE,143,13.2,18.2,80,0.00,,---,0.00,VWS V14.01,2013-02-18 23:06:00,
2013-02-18 17:10:00,68.9,63.5,29.81,SE,144,11.2,15.2,83,0.00,,---,0.00,VWS V14.01,2013-02-18 23:10:00,
2013-02-18 17:11:00,70.6,64.1,29.80,SSE,158,13.2,17.2,80,0.00,,---,0.00,VWS V14.01,2013-02-18 23:11:00,
2013-02-18 17:15:00,68.8,63.8,29.82,SSE,152,6.2,15.2,84,0.00,,---,0.00,VWS V14.01,2013-02-18 23:15:00,
2013-02-18 17:16:00,70.3,63.8,29.80,South,178,11.2,15.2,80,0.00,,---,0.00,VWS V14.01,2013-02-18 23:16:00,
2013-02-18 17:20:00,68.8,63.8,29.82,SE,140,12.2,16.2,84,0.00,,---,0.00,VWS V14.01,2013-02-18 23:20:00,
2013-02-18 17:21:00,70.1,64.0,29.80,SSW,203,8.2,16.2,81,0.00,,---,0.00,VWS V14.01,2013-02-18 23:21:00,
2013-02-18 17:25:00,68.6,63.6,29.82,South,178,6.2,13.2,84,0.00,,---,0.00,VWS V14.01,2013-02-18 23:25:00,
2013-02-18 17:26:00,69.8,63.7,29.80,SSE,160,5.2,11.2,81,0.00,,---,0.00,VWS V14.01,2013-02-18 23:26:00,
2013-02-18 17:30:00,68.6,63.6,29.83,SE,140,11.2,15.2,84,0.00,,---,0.00,VWS V14.01,2013-02-18 23:30:00,
2013-02-18 17:31:00,69.8,63.7,29.80,South,180,10.2,12.2,81,0.00,,---,0.00,VWS V14.01,2013-02-18 23:31:00,
2013-02-18 17:35:00,68.4,63.4,29.83,SSE,153,10.2,16.2,84,0.00,,---,0.00,VWS V14.01,2013-02-18 23:35:00,
2013-02-18 17:36:00,69.8,64.1,29.80,South,190,9.2,9.2,82,0.00,,---,0.00,VWS V14.01,2013-02-18 23:36:00,
2013-02-18 17:40:00,68.3,63.6,29.83,SSE,150,10.2,15.2,85,0.00,,---,0.00,VWS V14.01,2013-02-18 23:40:00,
2013-02-18 17:41:00,69.9,63.8,29.80,South,171,13.2,16.2,81,0.00,,---,0.00,VWS V14.01,2013-02-18 23:41:00,
2013-02-18 17:45:00,68.1,63.8,29.83,SSW,200,10.2,16.2,86,0.00,,---,0.00,VWS V14.01,2013-02-18 23:45:00,
2013-02-18 17:46:00,69.8,63.7,29.81,South,173,11.2,13.2,81,0.00,,---,0.00,VWS V14.01,2013-02-18 23:46:00,
2013-02-18 17:50:00,67.9,63.6,29.83,SSE,159,7.2,15.2,86,0.00,,---,0.00,VWS V14.01,2013-02-18 23:50:00,
2013-02-18 17:51:00,69.8,63.7,29.81,SE,146,8.2,14.2,81,0.00,,---,0.00,VWS V14.01,2013-02-18 23:51:00,
2013-02-18 17:55:00,67.8,63.8,29.83,SSE,148,12.2,15.2,87,0.00,,---,0.00,VWS V14.01,2013-02-18 23:55:00,
2013-02-18 17:56:00,69.6,63.5,29.81,South,188,6.2,7.2,81,0.00,,---,0.00,VWS V14.01,2013-02-18 23:56:00,
2013-02-18 18:00:00,67.6,63.6,29.84,SSE,156,10.2,15.2,87,0.00,,---,0.00,VWS V14.01,2013-02-19 00:00:00,
2013-02-18 18:01:00,69.4,63.7,29.81,SSE,159,12.2,13.2,82,0.00,,---,0.00,VWS V14.01,2013-02-19 00:01:00,
2013-02-18 18:05:00,67.4,63.7,29.84,SSE,150,6.2,14.2,88,0.00,,---,0.00,VWS V14.01,2013-02-19 00:05:00,
2013-02-18 18:06:00,69.1,63.7,29.81,South,173,7.2,8.2,83,0.00,,---,0.00,VWS V14.01,2013-02-19 00:06:00,
2013-02-18 18:10:00,67.4,63.7,29.84,SSW,195,7.2,15.2,88,0.00,,---,0.00,VWS V14.01,2013-02-19 00:10:00,
2013-02-18 18:11:00,68.9,63.5,29.81,SSE,163,4.2,14.2,83,0.00,,---,0.00,VWS V14.01,2013-02-19 00:11:00,
2013-02-18 18:15:00,67.4,63.7,29.84,SSE,156,7.2,14.2,88,0.00,,---,0.00,VWS V14.01,2013-02-19 00:15:00,
2013-02-18 18:16:00,68.8,63.8,29.82,SSE,155,5.2,10.2,84,0.00,,---,0.00,VWS V14.01,2013-02-19 00:16:00,
2013-02-18 18:20:00,67.4,63.7,29.84,SSE,161,8.2,18.2,88,0.00,,---,0.00,VWS V14.01,2013-02-19 00:20:00,
2013-02-18 18:21:00,68.6,63.6,29.82,SSE,152,11.2,13.2,84,0.00,,---,0.00,VWS V14.01,2013-02-19 00:21:00,
2013-02-18 18:25:00,67.4,63.7,29.84,SE,146,6.2,15.2,88,0.00,,---,0.00,VWS V14.01,2013-02-19 00:25:00,
2013-02-18 18:26:00,68.6,63.6,29.82,SSE,160,6.2,9.2,84,0.00,,---,0.00,VWS V14.01,2013-02-19 00:26:00,
2013-02-18 18:30:00,67.4,63.7,29.85,SSE,153,14.2,16.2,88,0.00,,---,0.00,VWS V14.01,2013-02-19 00:30:00,
2013-02-18 18:31:00,68.6,63.6,29.82,SSE,148,7.2,11.2,84,0.00,,---,0.00,VWS V14.01,2013-02-19 00:31:00,
2013-02-18 18:35:00,67.4,63.7,29.85,SE,146,8.2,14.2,88,0.00,,---,0.00,VWS V14.01,2013-02-19 00:35:00,
2013-02-18 18:36:00,68.4,63.4,29.82,SSE,155,5.2,10.2,84,0.00,,---,0.00,VWS V14.01,2013-02-19 00:36:00,
2013-02-18 18:40:00,67.1,63.8,29.85,South,178,3.2,15.2,89,0.00,,---,0.00,VWS V14.01,2013-02-19 00:40:00,
2013-02-18 18:41:00,68.3,63.6,29.82,South,173,8.2,10.2,85,0.00,,---,0.00,VWS V14.01,2013-02-19 00:41:00,
2013-02-18 18:45:00,67.1,63.8,29.86,SSE,148,5.2,12.2,89,0.00,,---,0.00,VWS V14.01,2013-02-19 00:45:00,
2013-02-18 18:46:00,68.1,63.8,29.83,South,177,10.2,13.2,86,0.00,,---,0.00,VWS V14.01,2013-02-19 00:46:00,
2013-02-18 18:50:00,66.9,63.6,29.86,South,176,5.2,13.2,89,0.00,,---,0.00,VWS V14.01,2013-02-19 00:50:00,
2013-02-18 18:51:00,67.9,63.6,29.83,SSE,159,15.2,15.2,86,0.00,,---,0.00,VWS V14.01,2013-02-19 00:51:00,
2013-02-18 18:55:00,66.9,63.9,29.86,SSE,163,6.2,14.2,90,0.00,,---,0.00,VWS V14.01,2013-02-19 00:55:00,
2013-02-18 18:56:00,67.8,63.8,29.83,ESE,107,9.2,12.2,87,0.00,,---,0.00,VWS V14.01,2013-02-19 00:56:00,
2013-02-18 19:00:00,66.9,63.9,29.87,SSE,162,4.2,15.2,90,0.00,,---,0.00,VWS V14.01,2013-02-19 01:00:00,
2013-02-18 19:01:00,67.6,63.6,29.84,SE,138,11.2,12.2,87,0.00,,---,0.00,VWS V14.01,2013-02-19 01:01:00,
2013-02-18 19:05:00,66.8,63.8,29.87,South,171,5.2,13.2,90,0.00,,---,0.00,VWS V14.01,2013-02-19 01:05:00,
2013-02-18 19:06:00,67.4,63.7,29.84,SSE,165,5.2,11.2,88,0.00,,---,0.00,VWS V14.01,2013-02-19 01:06:00,
2013-02-18 19:10:00,66.8,63.8,29.87,SSW,201,8.2,12.2,90,0.00,,---,0.00,VWS V14.01,2013-02-19 01:10:00,
2013-02-18 19:12:00,67.4,63.7,29.84,South,184,6.2,13.2,88,0.00,,---,0.00,VWS V14.01,2013-02-19 01:12:00,
2013-02-18 19:15:00,66.8,63.8,29.88,SE,146,8.2,13.2,90,0.00,,---,0.00,VWS V14.01,2013-02-19 01:15:00,
2013-02-18 19:17:00,67.4,63.7,29.84,South,182,8.2,15.2,88,0.00,,---,0.00,VWS V14.01,2013-02-19 01:17:00,
2013-02-18 19:20:00,66.8,64.1,29.88,SSE,156,10.2,12.2,91,0.00,,---,0.00,VWS V14.01,2013-02-19 01:20:00,
2013-02-18 19:22:00,67.4,63.7,29.84,SSE,158,14.2,15.2,88,0.00,,---,0.00,VWS V14.01,2013-02-19 01:22:00,
2013-02-18 19:25:00,66.9,63.9,29.88,SSE,166,7.2,12.2,90,0.00,,---,0.00,VWS V14.01,2013-02-19 01:25:00,
2013-02-18 19:27:00,67.4,63.7,29.84,South,183,8.2,10.2,88,0.00,,---,0.00,VWS V14.01,2013-02-19 01:27:00,
2013-02-18 19:30:00,66.9,63.9,29.89,SSE,158,5.2,15.2,90,0.00,,---,0.00,VWS V14.01,2013-02-19 01:30:00,
2013-02-18 19:32:00,67.4,63.7,29.85,South,188,8.2,14.2,88,0.00,,---,0.00,VWS V14.01,2013-02-19 01:32:00,
2013-02-18 19:35:00,66.9,63.9,29.89,SE,144,3.2,13.2,90,0.00,,---,0.00,VWS V14.01,2013-02-19 01:35:00,
2013-02-18 19:37:00,67.3,63.6,29.85,South,170,11.2,11.2,88,0.00,,---,0.00,VWS V14.01,2013-02-19 01:37:00,
2013-02-18 19:40:00,66.9,63.9,29.89,South,169,5.2,10.2,90,0.00,,---,0.00,VWS V14.01,2013-02-19 01:40:00,
2013-02-18 19:42:00,67.1,63.8,29.85,SSE,161,8.2,8.2,89,0.00,,---,0.00,VWS V14.01,2013-02-19 01:42:00,
2013-02-18 19:45:00,66.9,63.9,29.90,SSE,159,6.2,12.2,90,0.00,,---,0.00,VWS V14.01,2013-02-19 01:45:00,
2013-02-18 19:47:00,67.1,63.8,29.86,SSE,167,5.2,11.2,89,0.00,,---,0.00,VWS V14.01,2013-02-19 01:47:00,
2013-02-18 19:50:00,66.9,63.9,29.90,SSE,157,3.2,13.2,90,0.00,,---,0.00,VWS V14.01,2013-02-19 01:50:00,
2013-02-18 19:52:00,66.9,63.6,29.86,SSE,150,8.2,12.2,89,0.00,,---,0.00,VWS V14.01,2013-02-19 01:52:00,
2013-02-18 19:55:00,66.9,63.9,29.90,South,187,3.2,10.2,90,0.00,,---,0.00,VWS V14.01,2013-02-19 01:55:00,
2013-02-18 19:57:00,66.9,63.9,29.86,SSW,194,7.2,7.2,90,0.00,,---,0.00,VWS V14.01,2013-02-19 01:57:00,
2013-02-18 20:00:00,66.9,63.9,29.90,SSE,153,7.2,12.2,90,0.00,,---,0.00,VWS V14.01,2013-02-19 02:00:00,
2013-02-18 20:02:00,66.8,63.8,29.87,SE,145,10.2,10.2,90,0.00,,---,0.00,VWS V14.01,2013-02-19 02:02:00,
2013-02-18 20:05:00,66.9,63.9,29.90,South,188,7.2,11.2,90,0.00,,---,0.00,VWS V14.01,2013-02-19 02:05:00,
2013-02-18 20:07:00,66.8,63.8,29.87,South,186,10.2,10.2,90,0.00,,---,0.00,VWS V14.01,2013-02-19 02:07:00,
2013-02-18 20:10:00,66.8,64.1,29.90,SSE,162,5.2,13.2,91,0.00,,---,0.00,VWS V14.01,2013-02-19 02:10:00,
2013-02-18 20:12:00,66.8,63.8,29.87,SSE,165,11.2,13.2,90,0.00,,---,0.00,VWS V14.01,2013-02-19 02:12:00,
2013-02-18 20:15:00,66.8,64.1,29.91,South,177,7.2,11.2,91,0.00,,---,0.00,VWS V14.01,2013-02-19 02:15:00,
2013-02-18 20:17:00,66.8,63.8,29.88,South,177,6.2,11.2,90,0.00,,---,0.00,VWS V14.01,2013-02-19 02:17:00,
2013-02-18 20:20:00,66.8,64.1,29.91,South,184,9.2,10.2,91,0.00,,---,0.00,VWS V14.01,2013-02-19 02:20:00,
2013-02-18 20:22:00,66.8,64.1,29.88,SSE,168,10.2,10.2,91,0.00,,---,0.00,VWS V14.01,2013-02-19 02:22:00,
2013-02-18 20:25:00,66.8,64.1,29.91,South,184,9.2,12.2,91,0.00,,---,0.00,VWS V14.01,2013-02-19 02:25:00,
2013-02-18 20:27:00,66.9,63.9,29.88,South,175,6.2,8.2,90,0.00,,---,0.00,VWS V14.01,2013-02-19 02:27:00,
2013-02-18 20:30:00,66.8,64.1,29.92,SSE,151,4.2,14.2,91,0.00,,---,0.00,VWS V14.01,2013-02-19 02:30:00,
2013-02-18 20:32:00,66.9,63.9,29.89,South,176,9.2,9.2,90,0.00,,---,0.00,VWS V14.01,2013-02-19 02:32:00,
2013-02-18 20:35:00,66.6,63.9,29.92,SSE,166,5.2,12.2,91,0.00,,---,0.00,VWS V14.01,2013-02-19 02:35:00,
2013-02-18 20:37:00,66.9,63.9,29.89,SSW,195,6.2,6.2,90,0.00,,---,0.00,VWS V14.01,2013-02-19 02:37:00,
2013-02-18 20:40:00,66.6,63.9,29.92,South,181,6.2,14.2,91,0.00,,---,0.00,VWS V14.01,2013-02-19 02:40:00,
2013-02-18 20:42:00,66.9,63.9,29.89,South,176,7.2,10.2,90,0.00,,---,0.00,VWS V14.01,2013-02-19 02:42:00,
2013-02-18 20:45:00,66.6,63.9,29.92,South,180,5.2,13.2,91,0.00,,---,0.00,VWS V14.01,2013-02-19 02:45:00,
2013-02-18 20:47:00,66.9,63.9,29.90,SSE,154,6.2,12.2,90,0.00,,---,0.00,VWS V14.01,2013-02-19 02:47:00,
2013-02-18 20:50:00,66.6,63.9,29.92,South,184,4.2,14.2,91,0.00,,---,0.00,VWS V14.01,2013-02-19 02:50:00,
2013-02-18 20:52:00,66.9,63.9,29.90,SSE,163,4.2,6.2,90,0.00,,---,0.00,VWS V14.01,2013-02-19 02:52:00,
2013-02-18 20:55:00,66.6,63.9,29.92,South,176,6.2,10.2,91,0.00,,---,0.00,VWS V14.01,2013-02-19 02:55:00,
2013-02-18 20:57:00,66.9,63.9,29.90,South,185,4.2,10.2,90,0.00,,---,0.00,VWS V14.01,2013-02-19 02:57:00,
2013-02-18 21:00:00,66.4,63.7,29.92,South,191,5.2,13.2,91,0.00,,---,0.00,VWS V14.01,2013-02-19 03:00:00,
2013-02-18 21:02:00,66.9,63.9,29.90,SSE,153,10.2,11.2,90,0.00,,---,0.00,VWS V14.01,2013-02-19 03:02:00,
2013-02-18 21:05:00,66.4,63.7,29.92,SSW,197,5.2,14.2,91,0.00,,---,0.00,VWS V14.01,2013-02-19 03:05:00,
2013-02-18 21:07:00,66.8,63.8,29.90,SSE,165,6.2,7.2,90,0.00,,---,0.00,VWS V14.01,2013-02-19 03:07:00,
2013-02-18 21:10:00,66.4,63.7,29.92,SSE,161,4.2,15.2,91,0.00,,---,0.00,VWS V14.01,2013-02-19 03:10:00,
2013-02-18 21:12:00,66.8,64.1,29.90,South,188,5.2,11.2,91,0.00,,---,0.00,VWS V14.01,2013-02-19 03:12:00,
2013-02-18 21:15:00,66.4,63.7,29.93,South,186,9.2,12.2,91,0.00,,---,0.00,VWS V14.01,2013-02-19 03:15:00,
2013-02-18 21:17:00,66.8,64.1,29.91,South,188,8.2,8.2,91,0.00,,---,0.00,VWS V14.01,2013-02-19 03:17:00,
2013-02-18 21:20:00,66.3,63.6,29.93,South,178,2.2,11.2,91,0.00,,---,0.00,VWS V14.01,2013-02-19 03:20:00,
2013-02-18 21:22:00,66.8,64.1,29.91,South,186,12.2,12.2,91,0.00,,---,0.00,VWS V14.01,2013-02-19 03:22:00,
2013-02-18 21:25:00,66.3,63.9,29.93,SSW,200,7.2,13.2,92,0.00,,---,0.00,VWS V14.01,2013-02-19 03:25:00,
2013-02-18 21:27:00,66.8,64.1,29.91,South,190,6.2,10.2,91,0.00,,---,0.00,VWS V14.01,2013-02-19 03:27:00,
2013-02-18 21:30:00,66.1,63.7,29.93,SSE,160,8.2,12.2,92,0.00,,---,0.00,VWS V14.01,2013-02-19 03:30:00,
2013-02-18 21:32:00,66.8,64.1,29.92,South,169,7.2,12.2,91,0.00,,---,0.00,VWS V14.01,2013-02-19 03:32:00,
2013-02-18 21:35:00,66.0,63.6,29.93,South,180,10.2,11.2,92,0.00,,---,0.00,VWS V14.01,2013-02-19 03:35:00,
2013-02-18 21:37:00,66.6,63.9,29.92,SSW,193,8.2,12.2,91,0.00,,---,0.00,VWS V14.01,2013-02-19 03:37:00,
2013-02-18 21:40:00,66.0,63.6,29.93,SSW,201,7.2,13.2,92,0.00,,---,0.00,VWS V14.01,2013-02-19 03:40:00,
2013-02-18 21:42:00,66.6,63.9,29.92,South,190,6.2,13.2,91,0.00,,---,0.00,VWS V14.01,2013-02-19 03:42:00,
2013-02-18 21:45:00,65.8,63.4,29.94,South,174,7.2,11.2,92,0.00,,---,0.00,VWS V14.01,2013-02-19 03:45:00,
2013-02-18 21:47:00,66.6,63.9,29.92,SSW,192,8.2,12.2,91,0.00,,---,0.00,VWS V14.01,2013-02-19 03:47:00,
2013-02-18 21:50:00,65.8,63.4,29.94,SSE,168,6.2,11.2,92,0.00,,---,0.00,VWS V14.01,2013-02-19 03:50:00,
2013-02-18 21:52:00,66.6,63.9,29.92,South,176,7.2,10.2,91,0.00,,---,0.00,VWS V14.01,2013-02-19 03:52:00,
2013-02-18 21:55:00,65.8,63.4,29.94,SSW,194,3.2,10.2,92,0.00,,---,0.00,VWS V14.01,2013-02-19 03:55:00,
2013-02-18 21:57:00,66.6,63.9,29.92,South,190,9.2,13.2,91,0.00,,---,0.00,VWS V14.01,2013-02-19 03:57:00,
2013-02-18 22:00:00,65.8,63.4,29.94,South,188,4.2,11.2,92,0.00,,---,0.00,VWS V14.01,2013-02-19 04:00:00,
2013-02-18 22:02:00,66.4,63.7,29.92,South,178,6.2,10.2,91,0.00,,---,0.00,VWS V14.01,2013-02-19 04:02:00,
2013-02-18 22:05:00,65.6,63.2,29.94,South,176,5.2,7.2,92,0.00,,---,0.00,VWS V14.01,2013-02-19 04:05:00,
2013-02-18 22:07:00,66.4,63.7,29.92,SSW,203,11.2,14.2,91,0.00,,---,0.00,VWS V14.01,2013-02-19 04:07:00,
2013-02-18 22:10:00,65.6,63.2,29.94,South,183,3.2,8.2,92,0.00,,---,0.00,VWS V14.01,2013-02-19 04:10:00,
2013-02-18 22:12:00,66.4,63.7,29.92,SSE,168,5.2,12.2,91,0.00,,---,0.00,VWS V14.01,2013-02-19 04:12:00,
2013-02-18 22:15:00,65.5,63.4,29.94,South,190,6.2,11.2,93,0.00,,---,0.00,VWS V14.01,2013-02-19 04:15:00,
2013-02-18 22:17:00,66.4,63.7,29.93,South,188,6.2,11.2,91,0.00,,---,0.00,VWS V14.01,2013-02-19 04:17:00,
2013-02-18 22:20:00,65.5,63.4,29.94,South,170,5.2,8.2,93,0.00,,---,0.00,VWS V14.01,2013-02-19 04:20:00,
2013-02-18 22:22:00,66.3,63.6,29.93,SSE,151,8.2,8.2,91,0.00,,---,0.00,VWS V14.01,2013-02-19 04:22:00,
2013-02-18 22:25:00,65.6,63.5,29.94,South,170,3.2,11.2,93,0.00,,---,0.00,VWS V14.01,2013-02-19 04:25:00,
2013-02-18 22:27:00,66.3,63.9,29.93,SSW,198,7.2,11.2,92,0.00,,---,0.00,VWS V14.01,2013-02-19 04:27:00,
2013-02-18 22:30:00,65.6,63.5,29.94,SSW,194,4.2,10.2,93,0.00,,---,0.00,VWS V14.01,2013-02-19 04:30:00,
2013-02-18 22:32:00,66.1,63.7,29.93,South,187,4.2,11.2,92,0.00,,---,0.00,VWS V14.01,2013-02-19 04:32:00,
2013-02-18 22:35:00,65.5,63.1,29.94,SSW,192,2.2,7.2,92,0.00,,---,0.00,VWS V14.01,2013-02-19 04:35:00,
2013-02-18 22:37:00,66.0,63.6,29.93,South,171,6.2,13.2,92,0.00,,---,0.00,VWS V14.01,2013-02-19 04:37:00,
2013-02-18 22:40:00,65.5,63.4,29.94,South,175,5.2,6.2,93,0.00,,---,0.00,VWS V14.01,2013-02-19 04:40:00,
2013-02-18 22:42:00,65.8,63.4,29.93,South,184,5.2,10.2,92,0.00,,---,0.00,VWS V14.01,2013-02-19 04:42:00,
2013-02-18 22:45:00,65.3,63.2,29.93,South,171,3.2,7.2,93,0.00,,---,0.00,VWS V14.01,2013-02-19 04:45:00,
2013-02-18 22:47:00,65.8,63.4,29.94,South,190,4.2,11.2,92,0.00,,---,0.00,VWS V14.01,2013-02-19 04:47:00,
2013-02-18 22:50:00,65.2,63.1,29.93,South,184,3.2,7.2,93,0.00,,---,0.00,VWS V14.01,2013-02-19 04:50:00,
2013-02-18 22:52:00,65.8,63.4,29.94,SW,221,7.2,10.2,92,0.00,,---,0.00,VWS V14.01,2013-02-19 04:52:00,
2013-02-18 22:55:00,65.0,63.2,29.93,South,182,1.2,6.2,94,0.00,,---,0.00,VWS V14.01,2013-02-19 04:55:00,
2013-02-18 22:57:00,65.8,63.4,29.94,SSW,192,8.2,8.2,92,0.00,,---,0.00,VWS V14.01,2013-02-19 04:57:00,
2013-02-18 23:00:00,65.8,63.4,29.94,South,170,5.2,11.2,92,0.00,,---,0.00,VWS V14.01,2013-02-19 05:00:00,
2013-02-18 23:05:00,65.6,63.2,29.94,South,184,6.2,7.2,92,0.00,,---,0.00,VWS V14.01,2013-02-19 05:05:00,
2013-02-18 23:10:00,65.6,63.2,29.94,South,183,3.2,8.2,92,0.00,,---,0.00,VWS V14.01,2013-02-19 05:10:00,
2013-02-18 23:15:00,65.5,63.4,29.94,South,188,5.2,11.2,93,0.00,,---,0.00,VWS V14.01,2013-02-19 05:15:00,
2013-02-18 23:20:00,65.5,63.4,29.94,South,171,5.2,8.2,93,0.00,,---,0.00,VWS V14.01,2013-02-19 05:20:00,
2013-02-18 23:25:00,65.5,63.4,29.94,South,170,6.2,11.2,93,0.00,,---,0.00,VWS V14.01,2013-02-19 05:25:00,
2013-02-18 23:30:00,65.6,63.5,29.93,South,188,8.2,9.2,93,0.00,,---,0.00,VWS V14.01,2013-02-19 05:30:00,
2013-02-18 23:35:00,65.5,63.1,29.93,SSW,192,4.2,7.2,92,0.00,,---,0.00,VWS V14.01,2013-02-19 05:35:00,
2013-02-18 23:40:00,65.5,63.4,29.93,South,175,4.2,6.2,93,0.00,,---,0.00,VWS V14.01,2013-02-19 05:40:00,
2013-02-18 23:45:00,65.3,63.2,29.93,South,171,4.2,7.2,93,0.00,,---,0.00,VWS V14.01,2013-02-19 05:45:00,
2013-02-18 23:50:00,65.2,63.1,29.93,South,184,2.2,7.2,93,0.00,,---,0.00,VWS V14.01,2013-02-19 05:50:00,
2013-02-18 23:55:00,65.2,63.4,29.93,South,182,1.2,6.2,94,0.00,,---,0.00,VWS V14.01,2013-02-19 05:55:00,